Location: Goll?ig?dem
(16.6773°N, 80.7332°E)
Time: 15:44:35
(UTC+00:00)

SWIFT - Pass Details

Date: 19 May 2025
Orbit: 447 x 455 km, 20.6° (Epoch: 13 June)

Event Time Altitude Azimuth Distance (km) Brightness Sun altitude
Exits shadow 22:08:57 21° 111° (ESE) 1,039 4.0 -25.7°
Drops below altitude 10° 22:10:30 10° 95° (E) 1,555 5.3 -25.4°
Sets 22:12:48 0° 86° (E) 2,427 6.6 -24.9°
